Tracking 28902 objects as of 19-May-2024
HD Live streaming from Space Station
objects crossing your sky now

STARLINK-6040

Track STARLINK-6040 now!
10-day predictions
STARLINK-6040 is classified as:


NORAD ID: 56809
Int'l Code: 2023-078AU
Perigee: 577.4 km
Apogee: 581.1 km
Inclination: 70.0 °
Period: 96.1 minutes
Semi major axis: 6950 km
RCS: Unknown
Launch date: May 31, 2023
Source: United States (US)
Launch site: AIR FORCE WESTERN TEST RANGE (AFWTR)
Your satellite tracking list
Your tracking list is empty




NASA's NSSDC Master Catalog

Two Line Element Set (TLE):
1 56809U 23078AU  24140.56623602 -.00001393  00000-0 -10903-3 0  9993
2 56809  70.0005 206.1912 0002720 259.5590 100.5263 14.98311103 53959
Source of the keplerian elements: AFSPC